When you browse on this site, cookies collect data to enhance your experience and personalize the content and advertising you see.
Visit our Privacy Policy to learn more. By continuing to use the site, you agree to this use of cookies and data.

Previsão horária em Plavuchaya Bereza

Hoje, 4 Agosto, Terça-feira

Tempo Temperatura Precipitação Vento Pressão Humidade
00:00 +16°C° 0 mm 1 m/s 753 mmHg 91%
01:00 +16°C° 0 mm 1 m/s 754 mmHg 93%
02:00 +16°C° 0 mm 1 m/s 754 mmHg 96%
03:00 +16°C° 0.1 mm 1 m/s 754 mmHg 94%
04:00 +16°C° 0.1 mm 1 m/s 754 mmHg 91%
05:00 +18°C° 0.1 mm 1 m/s 754 mmHg 89%
06:00 +18°C° 0.2 mm 1 m/s 754 mmHg 91%
07:00 +18°C° 0.2 mm 1 m/s 754 mmHg 92%
08:00 +18°C° 0.2 mm 1 m/s 754 mmHg 94%
09:00 +19°C° 0.2 mm 2 m/s 754 mmHg 87%
10:00 +21°C° 0.2 mm 3 m/s 754 mmHg 80%
11:00 +23°C° 0.2 mm 4 m/s 753 mmHg 72%
12:00 +25°C° 0.1 mm 4 m/s 753 mmHg 65%
13:00 +26°C° 0.1 mm 4 m/s 753 mmHg 58%
14:00 +27°C° 0.1 mm 5 m/s 753 mmHg 50%
15:00 +27°C° 0 mm 4 m/s 753 mmHg 54%
16:00 +26°C° 0 mm 4 m/s 753 mmHg 57%
17:00 +26°C° 0 mm 3 m/s 752 mmHg 61%
18:00 +24°C° 0.3 mm 3 m/s 752 mmHg 68%
19:00 +22°C° 0.3 mm 3 m/s 752 mmHg 76%
20:00 +20°C° 0.3 mm 3 m/s 752 mmHg 83%
21:00 +20°C° 0.4 mm 3 m/s 752 mmHg 87%
22:00 +19°C° 0.4 mm 3 m/s 752 mmHg 92%
23:00 +19°C° 0.4 mm 2 m/s 752 mmHg 97%

Amanhã, 5 Agosto, Quarta-feira

Tempo Temperatura Precipitação Vento Pressão Humidade
00:00 +19°C° 0.6 mm 3 m/s 752 mmHg 96%
01:00 +19°C° 0.6 mm 3 m/s 752 mmHg 96%
02:00 +18°C° 0.6 mm 4 m/s 752 mmHg 95%
03:00 +18°C° 0.5 mm 4 m/s 753 mmHg 96%
04:00 +18°C° 0.5 mm 4 m/s 753 mmHg 96%
05:00 +18°C° 0.5 mm 3 m/s 753 mmHg 97%
06:00 +18°C° 0.3 mm 3 m/s 754 mmHg 96%
07:00 +17°C° 0.3 mm 2 m/s 754 mmHg 95%
08:00 +17°C° 0.3 mm 2 m/s 755 mmHg 94%
09:00 +19°C° 0.2 mm 2 m/s 755 mmHg 85%
10:00 +21°C° 0.2 mm 1 m/s 756 mmHg 75%
11:00 +23°C° 0.2 mm 1 m/s 757 mmHg 66%
12:00 +24°C° 0 mm 2 m/s 757 mmHg 60%
13:00 +24°C° 0 mm 2 m/s 757 mmHg 54%
14:00 +25°C° 0 mm 2 m/s 757 mmHg 48%
15:00 +25°C° 0 mm 2 m/s 758 mmHg 48%
16:00 +25°C° 0 mm 2 m/s 758 mmHg 49%
17:00 +25°C° 0 mm 2 m/s 758 mmHg 49%
18:00 +21°C° 0 mm 2 m/s 758 mmHg 57%
19:00 +20°C° 0 mm 1 m/s 759 mmHg 64%
20:00 +18°C° 0 mm 1 m/s 759 mmHg 72%
21:00 +16°C° 0 mm 1 m/s 759 mmHg 74%
22:00 +15°C° 0 mm 1 m/s 760 mmHg 75%
23:00 +13°C° 0 mm 0 m/s 760 mmHg 77%

Depois de amanhã, 6 Agosto, Quinta-feira

Tempo Temperatura Precipitação Vento Pressão Humidade
00:00 +13°C° 0 mm 0 m/s 760 mmHg 79%
01:00 +14°C° 0 mm 1 m/s 761 mmHg 81%
02:00 +14°C° 0 mm 1 m/s 761 mmHg 83%
03:00 +13°C° 0 mm 1 m/s 761 mmHg 84%
04:00 +13°C° 0 mm 1 m/s 761 mmHg 85%
05:00 +13°C° 0 mm 1 m/s 762 mmHg 87%
06:00 +15°C° 0 mm 1 m/s 762 mmHg 79%
07:00 +18°C° 0 mm 1 m/s 762 mmHg 71%
08:00 +19°C° 0 mm 2 m/s 762 mmHg 63%
09:00 +20°C° 0 mm 2 m/s 763 mmHg 57%
10:00 +21°C° 0 mm 2 m/s 763 mmHg 50%
11:00 +24°C° 0 mm 2 m/s 763 mmHg 44%
12:00 +24°C° 0 mm 2 m/s 763 mmHg 45%
13:00 +24°C° 0 mm 2 m/s 763 mmHg 45%
14:00 +25°C° 0 mm 3 m/s 763 mmHg 45%
15:00 +25°C° 0 mm 2 m/s 763 mmHg 48%
16:00 +24°C° 0 mm 2 m/s 763 mmHg 51%
17:00 +24°C° 0 mm 2 m/s 763 mmHg 54%
18:00 +23°C° 0 mm 2 m/s 763 mmHg 62%
19:00 +20°C° 0 mm 2 m/s 763 mmHg 70%
20:00 +19°C° 0 mm 1 m/s 763 mmHg 78%
21:00 +19°C° 0 mm 1 m/s 763 mmHg 80%
22:00 +18°C° 0 mm 1 m/s 764 mmHg 81%
23:00 +18°C° 0 mm 1 m/s 764 mmHg 82%

7 Agosto, Sexta-feira

Tempo Temperatura Precipitação Vento Pressão Humidade
00:00 +18°C° 0 mm 1 m/s 764 mmHg 82%
01:00 +18°C° 0 mm 1 m/s 764 mmHg 82%
02:00 +18°C° 0 mm 1 m/s 764 mmHg 82%
03:00 +18°C° 0 mm 1 m/s 764 mmHg 84%
04:00 +18°C° 0 mm 1 m/s 764 mmHg 86%
05:00 +16°C° 0 mm 1 m/s 764 mmHg 88%
06:00 +19°C° 0 mm 1 m/s 764 mmHg 83%
07:00 +20°C° 0 mm 1 m/s 765 mmHg 79%
08:00 +21°C° 0 mm 1 m/s 765 mmHg 75%
09:00 +22°C° 0.2 mm 1 m/s 765 mmHg 74%
10:00 +23°C° 0.2 mm 1 m/s 765 mmHg 73%
11:00 +23°C° 0.2 mm 1 m/s 765 mmHg 73%
12:00 +23°C° 0.4 mm 1 m/s 765 mmHg 74%
13:00 +23°C° 0.4 mm 1 m/s 764 mmHg 76%
14:00 +23°C° 0.4 mm 1 m/s 764 mmHg 78%
15:00 +23°C° 0.1 mm 1 m/s 764 mmHg 78%
16:00 +21°C° 0.1 mm 0 m/s 764 mmHg 79%
17:00 +21°C° 0.1 mm 0 m/s 764 mmHg 79%
18:00 +20°C° 0 mm 0 m/s 764 mmHg 83%
19:00 +18°C° 0 mm 0 m/s 764 mmHg 88%
20:00 +17°C° 0 mm 0 m/s 764 mmHg 92%
21:00 +17°C° 0 mm 0 m/s 764 mmHg 93%
22:00 +16°C° 0 mm 0 m/s 764 mmHg 94%
23:00 +15°C° 0 mm 0 m/s 764 mmHg 95%

8 Agosto, Sábado

Tempo Temperatura Precipitação Vento Pressão Humidade
00:00 +15°C° 0 mm 0 m/s 764 mmHg 96%
01:00 +15°C° 0 mm 0 m/s 764 mmHg 96%
02:00 +15°C° 0 mm 0 m/s 764 mmHg 96%
03:00 +14°C° 0 mm 0 m/s 764 mmHg 96%
04:00 +14°C° 0 mm 0 m/s 764 mmHg 97%
05:00 +14°C° 0 mm 0 m/s 764 mmHg 97%
06:00 +16°C° 0 mm 0 m/s 763 mmHg 93%
07:00 +17°C° 0 mm 0 m/s 763 mmHg 89%
08:00 +19°C° 0 mm 0 m/s 763 mmHg 84%
09:00 +22°C° 0.4 mm 1 m/s 763 mmHg 80%
10:00 +23°C° 0.4 mm 1 m/s 763 mmHg 76%
11:00 +24°C° 0.4 mm 1 m/s 763 mmHg 72%
12:00 +24°C° 0.7 mm 1 m/s 762 mmHg 72%
13:00 +24°C° 0.7 mm 1 m/s 762 mmHg 72%
14:00 +24°C° 0.7 mm 2 m/s 761 mmHg 72%
15:00 +24°C° 0.5 mm 2 m/s 761 mmHg 74%
16:00 +24°C° 0.5 mm 2 m/s 761 mmHg 75%
17:00 +24°C° 0.5 mm 2 m/s 761 mmHg 76%
18:00 +22°C° 0 mm 1 m/s 760 mmHg 80%
19:00 +21°C° 0 mm 1 m/s 760 mmHg 85%
20:00 +19°C° 0 mm 1 m/s 760 mmHg 89%
21:00 +18°C° 0 mm 1 m/s 760 mmHg 90%
22:00 +18°C° 0 mm 1 m/s 760 mmHg 91%
23:00 +16°C° 0 mm 1 m/s 760 mmHg 92%

9 Agosto, Domingo

Tempo Temperatura Precipitação Vento Pressão Humidade
00:00 +15°C° 0 mm 1 m/s 760 mmHg 93%
01:00 +15°C° 0 mm 1 m/s 760 mmHg 93%
02:00 +14°C° 0 mm 1 m/s 760 mmHg 93%
03:00 +14°C° 0 mm 1 m/s 760 mmHg 93%
04:00 +14°C° 0 mm 1 m/s 760 mmHg 92%
05:00 +14°C° 0 mm 1 m/s 760 mmHg 92%
06:00 +15°C° 0 mm 1 m/s 760 mmHg 86%
07:00 +18°C° 0 mm 1 m/s 759 mmHg 81%
08:00 +18°C° 0 mm 2 m/s 759 mmHg 75%
09:00 +20°C° 0 mm 2 m/s 759 mmHg 68%
10:00 +21°C° 0 mm 2 m/s 759 mmHg 60%
11:00 +24°C° 0 mm 2 m/s 759 mmHg 53%
12:00 +24°C° 0 mm 2 m/s 759 mmHg 50%
13:00 +24°C° 0 mm 2 m/s 758 mmHg 48%
14:00 +25°C° 0 mm 2 m/s 758 mmHg 45%
15:00 +24°C° 0 mm 2 m/s 758 mmHg 48%
16:00 +24°C° 0 mm 2 m/s 757 mmHg 51%
17:00 +23°C° 0 mm 2 m/s 757 mmHg 53%
18:00 +20°C° 0 mm 2 m/s 757 mmHg 60%
19:00 +19°C° 0 mm 2 m/s 757 mmHg 67%
20:00 +18°C° 0 mm 1 m/s 757 mmHg 74%
21:00 +16°C° 0 mm 1 m/s 757 mmHg 77%
22:00 +15°C° 0 mm 1 m/s 757 mmHg 80%
23:00 +15°C° 0 mm 1 m/s 757 mmHg 83%
Mostrar mais